[[{"header":{"parameterUnit":"m.s-1","parameterCategory":1,"la1":30.2991,"la2":30.254,"lo1":-89.0895,"lo2":-89.0444,"dy":0.0017,"dx":0.0017,"nx":28,"ny":28,"refTime":"2024-04-15T21:00:00:Z","depth":0,"parameterNumber":2,"parameterNumberName":"U-component_of_WINDS"},"data":[0,0,0,0,0,0,0,0,0,0,0,0,0,0,0,0,0,0,0,0,0,0,0,0,0,0,0,0,0,0,0,0,0,0,0,0,0,0,0,0,0,0,0,0,0,0,0,0,0,0,0,0,0,0,0,0,0,0,-4.9617,-4.9617,0,-4.9662,-4.9663,-4.9663,-4.9642,-4.964,-4.9639,-4.9638,-4.9683,-4.9685,-4.9687,0,0,0,0,0,0,0,0,0,0,0,0,0,-4.951,-4.9512,-4.9617,-4.9617,-4.9618,-4.9662,-4.9663,-4.9664,-4.9642,-4.964,-4.9639,-4.9638,-4.9682,-4.9685,-4.9687,0,0,0,0,0,0,0,0,0,0,0,0,0,-4.9556,-4.9513,-4.9617,-4.9613,-4.9613,-4.9662,-4.9663,-4.9664,-4.9642,-4.964,-4.9639,-4.9637,-4.9681,-4.9684,-4.9688,-4.9743,0,0,-4.9698,-4.9699,0,0,0,0,0,0,0,0,-4.9553,-4.956,-4.9613,-4.9613,-4.9613,-4.9645,-4.9641,-4.969,-4.9643,-4.9631,-4.9638,-4.9636,-4.9671,-4.9675,-4.9688,-4.9745,-4.9747,-4.9698,-4.97,-4.9702,-4.9703,0,0,0,0,0,0,0,-4.955,-4.9558,-4.9635,-4.9613,-4.9614,-4.9608,-4.9613,-4.9651,-4.966,-4.9632,-4.963,-4.9636,-4.9671,-4.9684,-4.9688,-4.9748,-4.9698,-4.9701,-4.9703,-4.9705,-4.9853,-4.9855,0,0,0,0,0,0,-4.9547,-4.9555,-4.9633,-4.9636,-4.9578,-4.9611,-4.9616,-4.9636,-4.966,-4.9662,-4.9638,-4.9635,-4.9679,-4.9685,-4.969,-4.9755,-4.9702,-4.9705,-4.9707,-4.9851,-4.9854,-4.9856,0,0,0,0,0,0,-4.9545,-4.9555,-4.9632,-4.9595,-4.9605,-4.9615,-4.9637,-4.9638,-4.9651,-4.9664,-4.9665,-4.9649,-4.9678,-4.9685,-4.973,-4.9757,-4.9707,-4.971,-4.9849,-4.9852,-4.9855,-4.9888,0,0,0,0,0,0,-4.9542,-4.9554,-4.9575,-4.9596,-4.9607,-4.9671,-4.9639,-4.964,-4.9657,-4.9654,-4.9676,-4.9677,-4.9677,-4.9725,-4.9734,-4.976,-4.9712,-4.9847,-4.985,-4.9854,-4.9884,-4.9891,-4.9897,0,0,0,0,0,-4.9538,-4.9582,-4.9576,-4.9586,-4.9634,-4.9673,-4.9679,-4.9679,-4.966,-4.9681,-4.9689,-4.9677,-4.9753,-4.973,-4.9739,-4.9768,-4.9845,-4.9849,-4.9854,-4.9881,-4.989,-4.9897,0,0,0,0,0,0,-4.9563,-4.9585,-4.9578,-4.9631,-4.965,-4.9669,-4.9696,-4.9688,-4.9713,-4.9709,-4.9707,-4.9712,-4.9758,-4.9768,-4.9742,-4.9823,-4.9796,-4.9802,-4.9814,-4.9822,-4.9829,-4.9824,-4.9715,0,0,0,0,0,-4.9575,-4.9605,-4.9623,-4.9667,-4.9677,-4.9685,-4.9702,-4.9701,-4.972,-4.9728,-4.974,-4.9759,-4.9787,-4.9806,-4.9833,-4.9887,-4.989,-4.9911,-4.9918,-4.9923,-4.9927,-4.9956,-4.9965,-4.987,-4.987,-4.987,0,0,-4.9599,-4.9615,-4.9634,-4.9672,-4.9687,-4.9718,-4.9692,-4.9726,-4.9748,-4.9733,-4.9776,-4.9786,-4.9807,-4.9857,-4.9879,-4.9866,-4.9955,-4.9928,-4.9933,-4.9934,-4.9961,-4.997,-4.9978,-4.9873,-4.9872,-4.9872,0,0,-4.9658,-4.9674,-4.9712,-4.9728,-4.9751,-4.9756,-4.9766,-4.9787,-4.9792,-4.9836,-4.9825,-4.9852,-4.9901,-4.9917,-4.9931,-4.9998,-4.9987,-5.0007,-5.004,-5.0068,-5.0075,-5.0082,-5.0104,-5.0112,-5.0012,-5.0013,-5.0013,0,-4.9684,-4.973,-4.9732,-4.9767,-4.9784,-4.9773,-4.9811,-4.9827,-4.9857,-4.9869,-4.9855,-4.9916,-4.993,-4.9983,-4.9999,-5.0012,-5.0022,-5.0003,-5.0075,-5.0081,-5.0087,-5.0108,-5.0117,-5.0015,-5.0014,-5.0014,-5.0014,0,-4.9761,-4.9794,-4.9822,-4.9852,-4.9873,-4.9909,-4.9916,-4.9936,-4.9934,-4.9941,-4.9985,-5.0002,-5.0032,-5.0045,-5.0042,-5.0097,-5.0088,-5.0075,-5.0047,-5.0098,-5.0118,-5.0126,-5.0018,-5.0017,-5.0016,-5.0016,0,0,-4.9833,-4.9866,-4.9876,-4.989,-4.9916,-4.9941,-4.9977,-5.0007,-5.0024,-5.0047,-5.0076,-5.0119,-5.0107,-5.0123,-5.0123,-5.0148,-5.0198,-5.0131,-5.0131,-5.0141,-5.0258,-5.0266,-5.0275,-5.0192,-5.0194,-5.0195,-5.0255,0,-4.9892,-4.9956,-4.9959,-5.0016,-5.0046,-5.0037,-5.0069,-5.0088,-5.0096,-5.0122,-5.0131,-5.016,-5.0143,-5.0153,-5.0177,-5.0186,-5.0221,-5.0183,-5.0218,-5.0219,-5.0209,-5.0286,-5.0294,-5.035,-5.0263,-5.0264,-5.0265,0,-4.9969,-4.9994,-5.0054,-5.0077,-5.0089,-5.0117,-5.0145,-5.0171,-5.0193,-5.0197,-5.0216,-5.0213,-5.0249,-5.0224,-5.0274,-5.0248,-5.0263,-5.027,-5.0272,-5.0273,-5.0243,-5.0286,-5.0368,-5.0375,-5.0278,-5.0277,-5.0276,0,-5.0013,-5.0062,-5.0105,-5.0117,-5.0145,-5.0164,-5.0177,-5.0197,-5.0215,-5.024,-5.0251,-5.028,-5.0295,-5.0318,-5.0322,-5.0303,-5.0371,-5.0346,-5.0374,-5.0374,-5.0386,-5.0385,-5.0469,-5.0401,-5.0401,-5.0401,-5.0401,0,-5.0076,-5.0113,-5.0125,-5.015,-5.0191,-5.0196,-5.0236,-5.0247,-5.0265,-5.0293,-5.0288,-5.0314,-5.0319,-5.0346,-5.035,-5.039,-5.0398,-5.0401,-5.0401,-5.04,-5.0399,-5.0407,-5.0402,-5.0403,-5.0403,-5.0402,-5.0402,0,-5.0131,-5.0141,-5.0186,-5.0209,-5.0216,-5.0245,-5.0264,-5.0289,-5.0297,-5.0332,-5.034,-5.0353,-5.0385,-5.0392,-5.043,-5.0432,-5.0479,-5.0477,-5.0471,-5.047,-5.0497,-5.0494,-5.0587,-5.0599,-5.0526,-5.0526,-5.0527,0,-5.0169,-5.0197,-5.0224,-5.0242,-5.0256,-5.0286,-5.0304,-5.031,-5.0329,-5.0357,-5.0378,-5.041,-5.0434,-5.0485,-5.0498,-5.0526,-5.0523,-5.0554,-5.0527,-5.0525,-5.0521,-5.0518,-5.052,-5.0558,-5.0559,-5.0559,-5.056,0,-5.0236,-5.024,-5.0267,-5.0296,-5.0319,-5.0342,-5.0364,-5.038,-5.0389,-5.0411,-5.0443,-5.0463,-5.0502,-5.0532,-5.0562,-5.0574,-5.0568,-5.0569,-5.0576,-5.0574,-5.0569,-5.057,-5.0482,-5.0566,-5.0565,-5.0565,-5.0564,-5.0564,-5.0282,-5.0306,-5.0329,-5.0359,-5.0377,-5.0398,-5.0422,-5.0435,-5.0462,-5.0494,-5.0497,-5.0531,-5.0553,-5.0592,-5.0607,-5.0634,-5.0624,-5.0636,-5.0638,-5.064,-5.0641,-5.0567,-5.0639,-5.0639,-5.0639,-5.0639,-5.0639,0,-5.0346,-5.0361,-5.0389,-5.0421,-5.0445,-5.044,-5.0464,-5.0484,-5.0515,-5.0537,-5.0562,-5.0599,-5.063,-5.0645,-5.0675,-5.0694,-5.0692,-5.0701,-5.0698,-5.0701,-5.0649,-5.0639,-5.0702,-5.0702,-5.0702,-5.0702,-5.0702,-5.0702,-5.0382,-5.0423,-5.043,-5.0479,-5.0494,-5.0528,-5.0542,-5.0562,-5.0579,-5.0621,-5.0646,-5.0657,-5.0676,-5.0707,-5.0735,-5.0739,-5.0749,-5.0759,-5.0761,-5.0712,-5.0705,-5.0699,-5.0688,-5.0762,-5.0762,-5.0811,-5.0811,-5.0811]},{"header":{"parameterUnit":"m.s-1","parameterCategory":1,"la1":30.2991,"la2":30.254,"lo1":-89.0895,"lo2":-89.0444,"dy":0.0017,"dx":0.0017,"nx":28,"ny":28,"refTime":"2024-04-15T21:00:00:Z","depth":0,"parameterNumber":3,"parameterNumberName":"V-component_of_WINDS"},"data":[0,0,0,0,0,0,0,0,0,0,0,0,0,0,0,0,0,0,0,0,0,0,0,0,0,0,0,0,0,0,0,0,0,0,0,0,0,0,0,0,0,0,0,0,0,0,0,0,0,0,0,0,0,0,0,0,0,0,3.8159,3.816,0,3.8213,3.8213,3.8214,3.8279,3.828,3.8281,3.8282,3.8332,3.8333,3.8333,0,0,0,0,0,0,0,0,0,0,0,0,0,3.8109,3.811,3.8159,3.816,3.816,3.8212,3.8213,3.8214,3.8279,3.828,3.8281,3.8282,3.8332,3.8333,3.8333,0,0,0,0,0,0,0,0,0,0,0,0,0,3.8143,3.811,3.8159,3.8199,3.8203,3.8212,3.8213,3.8214,3.8278,3.828,3.8282,3.8283,3.8332,3.8333,3.8333,3.8306,0,0,3.8335,3.8335,0,0,0,0,0,0,0,0,3.8141,3.8145,3.8193,3.8196,3.8201,3.8241,3.8214,3.8245,3.8278,3.825,3.8282,3.8284,3.83,3.8304,3.831,3.8308,3.831,3.8335,3.8335,3.8336,3.8336,0,0,0,0,0,0,0,3.8139,3.8143,3.818,3.8193,3.8198,3.8213,3.822,3.822,3.8266,3.8252,3.8257,3.8263,3.8303,3.8309,3.8312,3.8311,3.8335,3.8336,3.8336,3.8336,3.829,3.8288,0,0,0,0,0,0,3.8131,3.8141,3.8178,3.8182,3.8175,3.8213,3.822,3.8226,3.8266,3.8273,3.8262,3.8266,3.8308,3.8311,3.8314,3.8285,3.8336,3.8336,3.8337,3.8291,3.8289,3.8288,0,0,0,0,0,0,3.813,3.8134,3.8176,3.8163,3.8169,3.8212,3.8218,3.8227,3.8233,3.8273,3.8281,3.826,3.8309,3.8313,3.8308,3.8288,3.8336,3.8337,3.8293,3.8291,3.8288,3.8226,0,0,0,0,0,0,3.8128,3.8133,3.8124,3.8162,3.817,3.817,3.8217,3.8226,3.8235,3.8241,3.8274,3.828,3.8311,3.8307,3.8308,3.8289,3.8337,3.8295,3.8292,3.8289,3.823,3.8222,3.8215,0,0,0,0,0,3.8126,3.8103,3.8123,3.8127,3.8159,3.8169,3.8173,3.821,3.8233,3.8223,3.8249,3.8279,3.8289,3.8305,3.8308,3.8289,3.8297,3.8293,3.8289,3.8234,3.8224,3.8215,0,0,0,0,0,0,3.806,3.8109,3.8132,3.8121,3.814,3.818,3.8169,3.8198,3.821,3.8215,3.8258,3.8265,3.8254,3.8271,3.8288,3.8264,3.8297,3.8294,3.8254,3.8245,3.8237,3.8234,3.8338,0,0,0,0,0,3.8044,3.8049,3.8091,3.8077,3.8086,3.8126,3.8131,3.8158,3.8179,3.8188,3.8213,3.8231,3.8239,3.8243,3.8252,3.8233,3.8241,3.8221,3.8213,3.8206,3.8203,3.8195,3.8186,3.8276,3.8276,3.8276,0,0,3.8012,3.8039,3.8039,3.8065,3.8083,3.8086,3.8132,3.8134,3.8136,3.8187,3.8185,3.8203,3.8227,3.8215,3.8211,3.8228,3.818,3.8202,3.8196,3.8197,3.819,3.8182,3.8174,3.8273,3.8274,3.8274,0,0,3.7954,3.7975,3.7967,3.7984,3.8012,3.8039,3.8036,3.8072,3.8087,3.8085,3.8124,3.8127,3.8138,3.8154,3.8163,3.8111,3.814,3.8113,3.8073,3.8064,3.8057,3.8051,3.8033,3.8026,3.8109,3.8109,3.8109,0,3.791,3.7917,3.7958,3.7957,3.7967,3.8015,3.8006,3.8021,3.8049,3.8055,3.8074,3.8091,3.811,3.8102,3.8089,3.8095,3.8094,3.811,3.8055,3.8049,3.8044,3.8027,3.802,3.8106,3.8106,3.8107,3.8107,0,3.7861,3.7866,3.7855,3.7884,3.7892,3.7887,3.7926,3.7929,3.7955,3.7979,3.7976,3.8001,3.8016,3.8016,3.804,3.8012,3.8022,3.8047,3.8082,3.8032,3.8017,3.801,3.8101,3.8102,3.8103,3.8104,0,0,3.7764,3.7815,3.7811,3.7824,3.7859,3.7862,3.7859,3.7875,3.7877,3.7895,3.7893,3.7902,3.7926,3.7937,3.7963,3.7955,3.7913,3.7982,3.7983,3.7969,3.7883,3.7864,3.7856,3.7932,3.7931,3.793,3.7882,0,3.7713,3.7712,3.7748,3.7737,3.7741,3.7787,3.7784,3.7804,3.7826,3.7832,3.7856,3.7862,3.7894,3.79,3.7895,3.7919,3.7897,3.7923,3.793,3.793,3.7923,3.7848,3.7828,3.7781,3.7876,3.7875,3.7874,0,3.7653,3.767,3.7659,3.7694,3.7698,3.7694,3.7713,3.7718,3.7741,3.7758,3.777,3.78,3.7798,3.783,3.7828,3.7845,3.785,3.7863,3.7862,3.7864,3.7899,3.7849,3.7767,3.776,3.7865,3.7866,3.7866,0,3.7584,3.7603,3.7599,3.7609,3.765,3.7647,3.7663,3.7689,3.7696,3.7711,3.7716,3.773,3.7737,3.7747,3.778,3.78,3.7774,3.7808,3.7787,3.7786,3.778,3.778,3.7698,3.7782,3.7782,3.7782,3.7782,0,3.7524,3.7515,3.7569,3.7567,3.7558,3.76,3.759,3.7611,3.7632,3.7634,3.7673,3.7674,3.7717,3.7722,3.7748,3.7742,3.7745,3.7758,3.7765,3.7755,3.7753,3.7759,3.7763,3.778,3.778,3.7781,3.7781,0,3.7445,3.7481,3.748,3.7519,3.7528,3.7521,3.7554,3.7552,3.7577,3.7579,3.7581,3.762,3.7628,3.7661,3.7677,3.7694,3.768,3.7693,3.7672,3.7677,3.7654,3.7656,3.7573,3.7564,3.7653,3.7652,3.7651,0,3.7405,3.74,3.7439,3.7444,3.7459,3.7466,3.7474,3.7514,3.7521,3.7547,3.7542,3.7553,3.7565,3.7575,3.7603,3.7615,3.763,3.76,3.7632,3.7622,3.763,3.763,3.763,3.7593,3.7592,3.7591,3.759,0,3.7329,3.7347,3.7359,3.7376,3.7385,3.74,3.7417,3.7419,3.7463,3.7468,3.7478,3.7486,3.7503,3.7513,3.753,3.7546,3.7575,3.758,3.7575,3.7565,3.7554,3.756,3.7654,3.7581,3.7582,3.7583,3.7583,3.7584,3.7269,3.7267,3.7295,3.7306,3.7323,3.7338,3.734,3.7365,3.7374,3.7392,3.7414,3.742,3.7443,3.7469,3.7483,3.7487,3.7504,3.7497,3.7496,3.7494,3.7489,3.7553,3.749,3.7491,3.7491,3.7491,3.7491,0,3.7197,3.7217,3.7226,3.725,3.7259,3.7287,3.7307,3.7312,3.7318,3.7337,3.7348,3.7359,3.7369,3.7398,3.7411,3.7409,3.7423,3.7412,3.7412,3.7416,3.7473,3.7476,3.74,3.74,3.74,3.74,3.74,3.74,3.716,3.7158,3.7179,3.7186,3.7206,3.7214,3.7223,3.7237,3.7253,3.7263,3.7273,3.7292,3.7316,3.7331,3.7341,3.7349,3.7353,3.7337,3.7349,3.7403,3.7411,3.742,3.7423,3.7337,3.7337,3.7291,3.7291,3.729]}]]